Satellite: CO-58
Catalog number: 28895
Epoch time:      07200.75361234
Element set:     779
Inclination:      098.1297 deg
RA of node:       096.9707 deg
Eccentricity:    0.0018451
Arg of perigee:   014.5729 deg
Mean anomaly:     345.5990 deg
Mean motion:   14.59569084 rev/day
Decay rate:        4.8e-07 rev/day^2
Epoch rev:            9184
Checksum:              360

Satellite: NCUBE2
Catalog number: 28897
Epoch time:      07200.68769889
Element set:     306
Inclination:      098.1281 deg
RA of node:       096.8601 deg
Eccentricity:    0.0018068
Arg of perigee:   015.5112 deg
Mean anomaly:     344.6658 deg
Mean motion:   14.59732465 rev/day
Decay rate:        9.9e-07 rev/day^2
Epoch rev:            8411
Checksum:              336

Satellite: NMARS
Catalog number: 29662
Epoch time:      07126.39603970
Element set:     263
Inclination:      051.6121 deg
RA of node:       302.3682 deg
Eccentricity:    0.0004459
Arg of perigee:   252.1654 deg
Mean anomaly:     110.7411 deg
Mean motion:   16.47981436 rev/day
Decay rate:   7.031946e-02 rev/day^2
Epoch rev:            2165
Checksum:              289

Satellite: FCAL
Catalog number: 29667
Epoch time:      07200.53262073
Element set:     215
Inclination:      051.6344 deg
RA of node:       284.5210 deg
Eccentricity:    0.0014028
Arg of perigee:   107.8943 deg
Mean anomaly:     252.3590 deg
Mean motion:   15.89324155 rev/day
Decay rate:     1.0123e-04 rev/day^2
Epoch rev:            3314
Checksum:              261

Satellite: FALCON
Catalog number: 30776
Epoch time:      07199.87907360
Element set:      97
Inclination:      035.4345 deg
RA of node:       020.5385 deg
Eccentricity:    0.0001767
Arg of perigee:   344.9846 deg
Mean anomaly:     015.0818 deg
Mean motion:   15.02737211 rev/day
Decay rate:       2.33e-06 rev/day^2
Epoch rev:            1982
Checksum:              300

Satellite: MAST
Catalog number: 31126
Epoch time:      07200.68490284
Element set:      84
Inclination:      098.0801 deg
RA of node:       272.6655 deg
Eccentricity:    0.0093793
Arg of perigee:   285.1630 deg
Mean anomaly:     073.9199 deg
Mean motion:   14.53353375 rev/day
Decay rate:       3.92e-06 rev/day^2
Epoch rev:            1357
Checksum:              306

Satellite: CAPE1
Catalog number: 31130
Epoch time:      07199.19535945
Element set:    0071
Inclination:      098.0818 deg
RA of node:       271.0120 deg
Eccentricity:    0.0101946
Arg of perigee:   290.4709 deg
Mean anomaly:     068.5559 deg
Mean motion:   14.51867646 rev/day
Decay rate:       1.20e-06 rev/day^2
Epoch rev:           01311
Checksum:              287

/EX





More information about the Keps mailing list